sat.trackr.live / text

‹ back to catalog

STARLINK-36922

NORAD 68123 · 2026-044Y

PAYLOAD ACTIVE UNKNOWN

§ Identity

Operator
Country
US
Launch date
2026-03-08
Launch site
AFWTR
Launch vehicle
Mass (kg)
RCS (m²)

Purposes: comms

External: N2YO · Heavens-Above · Gunter

§ Orbital elements

Epoch: 2026-05-24T21:01:01.618752Z

Period
93.91 min
Inclination
97.2839°
Eccentricity
0.0001788
Mean motion
15.33453270 rev/d
Perigee alt
464.3 km
Apogee alt
466.7 km
Semi-major
6,843.7 km
B*
7.6400e-4
RAAN
105.5846°
Arg perigee
95.9474°
Mean anomaly
264.1972°
Rev number
1,326

§ Raw data

STARLINK-369221 68123U 26044Y   26144.87571318  .00024677  00000+0  76400-3 0  99982 68123  97.2839 105.5846 0001788  95.9474 264.1972 15.33453270 13267

JSON: /api/v1/satellites/68123 · /tle

For live sub-satellite position, see the globe view (requires WebGL).

§ Visibility from observer

Set your observer location to see the next 7 days of passes ≥ 10°. The values pass through the URL so the page stays shareable.

No JS? Fill the form by hand. The geolocation button needs JavaScript.